DL6DJ-15 Weather Reports


time (UTC)temp
F
wind
direction
speed
knots
gust
knots
rain 1hr
in
rain 24hr
in
rain mn
in
humidity
%
barometer
mb
20260507071935 53 0.0 0.0 0.00 0.00 0.00 71 1013.2
20260507071435 53 0.0 0.0 0.00 0.00 0.00 71 1013.2
20260507070935 53 0.0 0.0 0.00 0.00 0.00 72 1013.2
20260507070434 53 0.0 0.0 0.00 0.00 0.00 71 1013.1
20260507065935 53 0.0 0.0 0.00 0.00 0.00 70 1013.1
20260507065434 53 0.0 0.0 0.00 0.00 0.00 70 1013.0
20260507064934 53 0.0 0.0 0.00 0.00 0.00 72 1013.1
20260507064433 53 0.0 0.0 0.00 0.00 0.00 71 1013.0
20260507063933 52 0.0 0.0 0.00 0.00 0.00 72 1013.0
20260507063432 52 0.0 0.0 0.00 0.00 0.00 73 1013.0
20260507062932 52 0.0 0.0 0.00 0.00 0.00 75 1013.0
20260507062431 51 0.0 0.0 0.00 0.00 0.00 74 1013.0
20260507061931 51 0.0 0.0 0.00 0.00 0.00 74 1012.9
20260507061430 51 0.0 0.0 0.00 0.00 0.00 75 1012.9
20260507060930 51 0.0 0.0 0.00 0.00 0.00 75 1012.9
20260507060430 52 0.0 0.0 0.00 0.00 0.00 73 1012.7
20260507055929 52 0.0 0.0 0.00 0.00 0.00 72 1012.7
20260507055429 52 0.0 0.0 0.00 0.00 0.00 72 1012.6
20260507054928 52 0.0 0.0 0.00 0.00 0.00 73 1012.5
20260507054428 52 0.0 0.0 0.00 0.00 0.00 72 1012.5
20260507053928 53 0.0 0.0 0.00 0.00 0.00 68 1012.5
20260507053428 56 0.0 0.0 0.00 0.00 0.00 64 1012.5
20260507052927 55 0.0 0.0 0.00 0.00 0.00 67 1012.4
20260507052427 53 0.0 0.0 0.00 0.00 0.00 70 1012.4
20260507051926 52 0.0 0.0 0.00 0.00 0.00 72 1012.3
20260507051426 53 0.0 0.0 0.00 0.00 0.00 71 1012.3
20260507050925 52 0.0 0.0 0.00 0.00 0.00 74 1012.2
20260507050425 51 0.0 0.0 0.00 0.00 0.00 75 1012.2
20260507045924 51 0.0 0.0 0.00 0.00 0.00 76 1012.1
20260507045424 50 0.0 0.0 0.00 0.00 0.00 78 1012.0
20260507044924 48 0.0 0.0 0.00 0.00 0.00 81 1011.9
20260507044423 48 0.0 0.0 0.00 0.00 0.00 82 1012.0
20260507043923 47 0.0 0.0 0.00 0.00 0.00 83 1011.9
20260507043422 46 0.0 0.0 0.00 0.00 0.00 84 1012.0
20260507042922 46 0.0 0.0 0.00 0.00 0.00 84 1011.9
20260507042421 46 0.0 0.0 0.00 0.00 0.00 84 1011.8
20260507041922 46 0.0 0.0 0.00 0.00 0.00 84 1011.7
20260507041421 46 0.0 0.0 0.00 0.00 0.00 83 1011.6
20260507040920 46 0.0 0.0 0.00 0.00 0.00 82 1011.7
20260507040420 46 0.0 0.0 0.00 0.00 0.00 80 1011.6
20260507035920 47 0.0 0.0 0.00 0.00 0.00 80 1011.6
20260507035419 47 0.0 0.0 0.00 0.00 0.00 80 1011.6
20260507034919 47 0.0 0.0 0.00 0.00 0.00 81 1011.5
20260507034418 47 0.0 0.0 0.00 0.00 0.00 81 1011.5
20260507033918 47 0.0 0.0 0.00 0.00 0.00 80 1011.4
20260507033418 47 0.0 0.0 0.00 0.00 0.00 81 1011.4
20260507032918 47 0.0 0.0 0.00 0.00 0.00 81 1011.3
20260507032417 47 0.0 0.0 0.00 0.00 0.00 82 1011.4
20260507031917 47 0.0 0.0 0.00 0.00 0.00 82 1011.3
20260507031416 47 0.0 0.0 0.00 0.00 0.00 83 1011.4
20260507030916 47 0.0 0.0 0.00 0.00 0.00 83 1011.3
20260507030415 47 0.0 0.0 0.00 0.00 0.00 83 1011.2
20260507025915 48 0.0 0.0 0.00 0.00 0.00 83 1011.1
20260507025415 48 0.0 0.0 0.00 0.00 0.00 83 1011.2
20260507024914 48 0.0 0.0 0.00 0.00 0.00 83 1011.1
20260507024414 48 0.0 0.0 0.00 0.00 0.00 83 1011.1
20260507023914 48 0.0 0.0 0.00 0.00 0.00 83 1011.2
20260507023413 49 0.0 0.0 0.00 0.00 0.00 82 1011.1
20260507022913 49 0.0 0.0 0.00 0.00 0.00 82 1011.1
20260507022412 49 0.0 0.0 0.00 0.00 0.00 82 1011.0
20260507021912 49 0.0 0.0 0.00 0.00 0.00 81 1011.0
20260507021411 50 0.0 0.0 0.00 0.00 0.00 81 1010.9
20260507020911 50 0.0 0.0 0.00 0.00 0.00 81 1010.9
20260507020411 50 0.0 0.0 0.00 0.00 0.00 82 1011.0
20260507015910 50 0.0 0.0 0.00 0.00 0.00 81 1010.9
20260507015410 50 0.0 0.0 0.00 0.00 0.00 82 1010.9
20260507014910 50 0.0 0.0 0.00 0.00 0.00 83 1010.8
20260507014409 49 0.0 0.0 0.00 0.00 0.00 83 1010.7
20260507013909 49 0.0 0.0 0.00 0.00 0.00 83 1010.8
20260507013408 50 0.0 0.0 0.00 0.00 0.00 83 1010.6
20260507012908 50 0.0 0.0 0.00 0.00 0.00 82 1010.7
20260507012408 50 0.0 0.0 0.00 0.00 0.00 82 1010.6
20260507011907 50 0.0 0.0 0.00 0.00 0.00 82 1010.5
20260507011407 50 0.0 0.0 0.00 0.00 0.00 82 1010.5
20260507010906 50 0.0 0.0 0.00 0.00 0.00 83 1010.5
20260507010406 50 0.0 0.0 0.00 0.00 0.00 83 1010.6
20260507005905 50 0.0 0.0 0.00 0.00 0.00 83 1010.5
20260507005405 50 0.0 0.0 0.00 0.00 0.00 83 1010.6
20260507004904 50 0.0 0.0 0.00 0.00 0.00 83 1010.6
20260507004404 50 0.0 0.0 0.00 0.00 0.00 83 1010.6
20260507003904 50 0.0 0.0 0.00 0.00 0.00 83 1010.6
20260507003403 50 0.0 0.0 0.00 0.00 0.00 83 1010.5
20260507002903 50 0.0 0.0 0.00 0.00 0.00 83 1010.5
20260507002403 50 0.0 0.0 0.00 0.00 0.00 82 1010.5
20260507001902 50 0.0 0.0 0.00 0.00 0.00 82 1010.5
20260507001402 51 0.0 0.0 0.00 0.00 0.00 82 1010.4
20260507000901 51 0.0 0.0 0.00 0.00 0.00 82 1010.5
20260507000401 51 0.0 0.0 0.00 0.00 0.00 82 1010.5
20260506235901 51 0.0 0.0 0.00 0.00 0.00 81 1010.5
20260506235400 52 0.0 0.0 0.00 0.00 0.00 81 1010.5
20260506234900 51 0.0 0.0 0.00 0.00 0.00 82 1010.5
20260506234359 51 0.0 0.0 0.00 0.00 0.00 81 1010.5
20260506233859 51 0.0 0.0 0.00 0.00 0.00 82 1010.6
20260506233359 52 0.0 0.0 0.00 0.00 0.00 82 1010.6
20260506232859 52 0.0 0.0 0.00 0.00 0.00 82 1010.7
20260506232358 52 0.0 0.0 0.00 0.00 0.00 82 1010.6
20260506231858 52 0.0 0.0 0.00 0.00 0.00 81 1010.5
20260506231358 52 0.0 0.0 0.00 0.00 0.00 82 1010.5
20260506230857 52 0.0 0.0 0.00 0.00 0.00 83 1010.4
20260506230357 52 0.0 0.0 0.00 0.00 0.00 83 1010.4
20260506225856 52 0.0 0.0 0.00 0.00 0.00 84 1010.5
20260506225356 52 0.0 0.0 0.00 0.00 0.00 83 1010.5
20260506224856 53 0.0 0.0 0.00 0.00 0.00 83 1010.4
20260506224355 53 0.0 0.0 0.00 0.00 0.00 83 1010.4
20260506223855 53 0.0 0.0 0.00 0.00 0.00 83 1010.3
20260506223354 53 0.0 0.0 0.00 0.00 0.00 83 1010.3
20260506222854 53 0.0 0.0 0.00 0.00 0.00 83 1010.3
20260506222354 53 0.0 0.0 0.00 0.00 0.00 83 1010.2
20260506221853 53 0.0 0.0 0.00 0.00 0.00 82 1010.2
20260506221353 53 0.0 0.0 0.00 0.00 0.00 82 1010.1
20260506220852 53 0.0 0.0 0.00 0.00 0.00 82 1010.1
20260506220352 52 0.0 0.0 0.00 0.00 0.00 82 1010.1
20260506215851 52 0.0 0.0 0.00 0.00 0.00 81 1010.0
20260506215351 53 0.0 0.0 0.00 0.00 0.00 81 1010.0
20260506214851 53 0.0 0.0 0.00 0.00 0.00 80 1010.0
20260506214350 53 0.0 0.0 0.00 0.00 0.00 79 1009.9
20260506213850 53 0.0 0.0 0.00 0.00 0.00 79 1009.8
20260506213350 53 0.0 0.0 0.00 0.00 0.00 78 1009.8
20260506212849 53 0.0 0.0 0.00 0.00 0.00 78 1009.8
20260506212349 53 0.0 0.0 0.00 0.00 0.00 77 1009.8
20260506211848 53 0.0 0.0 0.00 0.00 0.00 78 1009.8
20260506211348 53 0.0 0.0 0.00 0.00 0.00 78 1009.8
20260506210847 53 0.0 0.0 0.00 0.00 0.00 77 1009.5
20260506210347 53 0.0 0.0 0.00 0.00 0.00 77 1009.5
20260506205847 53 0.0 0.0 0.00 0.00 0.00 77 1009.4
20260506205346 53 0.0 0.0 0.00 0.00 0.00 76 1009.3
20260506204846 53 0.0 0.0 0.00 0.00 0.00 77 1009.4
20260506204346 53 0.0 0.0 0.00 0.00 0.00 76 1009.5
20260506203845 52 0.0 0.0 0.00 0.00 0.00 76 1009.4
20260506203344 52 0.0 0.0 0.00 0.00 0.00 77 1009.5
20260506202844 52 0.0 0.0 0.00 0.00 0.00 78 1009.4
20260506202344 52 0.0 0.0 0.00 0.00 0.00 79 1009.4
20260506201844 51 0.0 0.0 0.00 0.00 0.00 79 1009.3
20260506201343 51 0.0 0.0 0.00 0.00 0.00 79 1009.3
20260506200843 51 0.0 0.0 0.00 0.00 0.00 79 1009.3
20260506200342 52 0.0 0.0 0.00 0.00 0.00 79 1009.2
20260506195842 52 0.0 0.0 0.00 0.00 0.00 79 1009.1
20260506195342 52 0.0 0.0 0.00 0.00 0.00 78 1009.0
20260506194842 52 0.0 0.0 0.00 0.00 0.00 77 1008.9
20260506194341 53 0.0 0.0 0.00 0.00 0.00 76 1008.8
20260506193841 53 0.0 0.0 0.00 0.00 0.00 76 1008.8
20260506193340 53 0.0 0.0 0.00 0.00 0.00 75 1008.5
20260506192840 54 0.0 0.0 0.00 0.00 0.00 73 1008.4
20260506192339 55 0.0 0.0 0.00 0.00 0.00 72 1008.2
20260506191839 55 0.0 0.0 0.00 0.00 0.00 73 1008.0
20260506191339 55 0.0 0.0 0.00 0.00 0.00 74 1008.0
20260506190839 55 0.0 0.0 0.00 0.00 0.00 74 1008.0
20260506190338 56 0.0 0.0 0.00 0.00 0.00 75 1008.0
20260506185837 56 0.0 0.0 0.00 0.00 0.00 74 1008.1
20260506185337 56 0.0 0.0 0.00 0.00 0.00 73 1007.6
20260506184837 56 0.0 0.0 0.00 0.00 0.00 74 1007.4
20260506184336 56 0.0 0.0 0.00 0.00 0.00 74 1007.5
20260506183835 57 0.0 0.0 0.00 0.00 0.00 71 1007.4
20260506183335 58 0.0 0.0 0.00 0.00 0.00 65 1007.6
20260506182835 58 0.0 0.0 0.00 0.00 0.00 63 1007.4
20260506182334 59 0.0 0.0 0.00 0.00 0.00 60 1007.4
20260506181834 61 0.0 0.0 0.00 0.00 0.00 62 1007.4
20260506181333 61 0.0 0.0 0.00 0.00 0.00 61 1007.1
20260506180833 62 0.0 0.0 0.00 0.00 0.00 60 1007.0
20260506180333 62 0.0 0.0 0.00 0.00 0.00 59 1006.8
20260506175832 63 0.0 0.0 0.00 0.00 0.00 57 1006.5
20260506175332 63 0.0 0.0 0.00 0.00 0.00 51 1006.5
20260506174832 64 0.0 0.0 0.00 0.00 0.00 51 1006.1
20260506174331 64 0.0 0.0 0.00 0.00 0.00 51 1006.1
20260506173832 65 0.0 0.0 0.00 0.00 0.00 50 1006.0
20260506173331 65 0.0 0.0 0.00 0.00 0.00 49 1005.8
20260506172830 65 0.0 0.0 0.00 0.00 0.00 51 1005.8
20260506172329 65 0.0 0.0 0.00 0.00 0.00 49 1005.7
20260506171829 65 0.0 0.0 0.00 0.00 0.00 49 1005.6
20260506171329 66 0.0 0.0 0.00 0.00 0.00 48 1005.4
20260506170828 66 0.0 0.0 0.00 0.00 0.00 49 1005.5
20260506170328 66 0.0 0.0 0.00 0.00 0.00 47 1005.2
20260506165828 66 0.0 0.0 0.00 0.00 0.00 47 1005.2
20260506165327 66 0.0 0.0 0.00 0.00 0.00 47 1005.6
20260506164827 66 0.0 0.0 0.00 0.00 0.00 47 1005.6
20260506164327 66 0.0 0.0 0.00 0.00 0.00 48 1005.7
20260506163826 66 0.0 0.0 0.00 0.00 0.00 46 1005.7
20260506163326 66 0.0 0.0 0.00 0.00 0.00 46 1005.6
20260506162825 66 0.0 0.0 0.00 0.00 0.00 46 1005.3
20260506162325 66 0.0 0.0 0.00 0.00 0.00 46 1005.5
20260506161824 66 0.0 0.0 0.00 0.00 0.00 46 1005.6
20260506161324 67 0.0 0.0 0.00 0.00 0.00 45 1005.8
20260506160824 67 0.0 0.0 0.00 0.00 0.00 44 1005.8
20260506160323 68 0.0 0.0 0.00 0.00 0.00 43 1005.8
20260506155823 68 0.0 0.0 0.00 0.00 0.00 43 1005.7
20260506155322 68 0.0 0.0 0.00 0.00 0.00 41 1005.6
20260506154822 69 0.0 0.0 0.00 0.00 0.00 41 1005.7
20260506154321 69 0.0 0.0 0.00 0.00 0.00 42 1005.7
20260506153820 69 0.0 0.0 0.00 0.00 0.00 39 1005.6
20260506153320 70 0.0 0.0 0.00 0.00 0.00 39 1005.5
20260506152820 69 0.0 0.0 0.00 0.00 0.00 39 1005.6
20260506152320 69 0.0 0.0 0.00 0.00 0.00 40 1005.6
20260506151819 69 0.0 0.0 0.00 0.00 0.00 39 1005.7
20260506151319 70 0.0 0.0 0.00 0.00 0.00 38 1005.6
20260506150819 70 0.0 0.0 0.00 0.00 0.00 36 1005.6
20260506150318 70 0.0 0.0 0.00 0.00 0.00 38 1005.6
20260506145818 70 0.0 0.0 0.00 0.00 0.00 38 1005.6
20260506145318 70 0.0 0.0 0.00 0.00 0.00 38 1005.6
20260506144817 70 0.0 0.0 0.00 0.00 0.00 37 1005.6
20260506144317 71 0.0 0.0 0.00 0.00 0.00 36 1005.6
20260506143816 72 0.0 0.0 0.00 0.00 0.00 36 1005.7
20260506143316 72 0.0 0.0 0.00 0.00 0.00 35 1005.5
20260506142816 72 0.0 0.0 0.00 0.00 0.00 36 1005.7
20260506142315 72 0.0 0.0 0.00 0.00 0.00 35 1005.7
20260506141815 72 0.0 0.0 0.00 0.00 0.00 36 1005.8
20260506141315 73 0.0 0.0 0.00 0.00 0.00 36 1005.6
20260506140814 73 0.0 0.0 0.00 0.00 0.00 35 1005.7
20260506140314 73 0.0 0.0 0.00 0.00 0.00 37 1005.7
20260506135813 72 0.0 0.0 0.00 0.00 0.00 38 1005.8
20260506135313 72 0.0 0.0 0.00 0.00 0.00 35 1005.8
20260506134813 73 0.0 0.0 0.00 0.00 0.00 35 1005.8
20260506134312 74 0.0 0.0 0.00 0.00 0.00 35 1005.8
20260506133812 74 0.0 0.0 0.00 0.00 0.00 37 1005.9
20260506133311 75 0.0 0.0 0.00 0.00 0.00 35 1005.9
20260506132811 73 0.0 0.0 0.00 0.00 0.00 36 1006.1
20260506132311 72 0.0 0.0 0.00 0.00 0.00 37 1006.2
20260506131810 73 0.0 0.0 0.00 0.00 0.00 36 1006.1
20260506131310 74 0.0 0.0 0.00 0.00 0.00 35 1006.2
20260506130810 73 0.0 0.0 0.00 0.00 0.00 37 1006.2
20260506130309 73 0.0 0.0 0.00 0.00 0.00 35 1006.4
20260506125808 75 0.0 0.0 0.00 0.00 0.00 34 1006.5
20260506125308 75 0.0 0.0 0.00 0.00 0.00 34 1006.4
20260506124808 75 0.0 0.0 0.00 0.00 0.00 35 1006.4
20260506124307 74 0.0 0.0 0.00 0.00 0.00 35 1006.4
20260506123807 74 0.0 0.0 0.00 0.00 0.00 36 1006.5
20260506123306 74 0.0 0.0 0.00 0.00 0.00 34 1006.5
20260506122806 73 0.0 0.0 0.00 0.00 0.00 36 1006.5
20260506122306 74 0.0 0.0 0.00 0.00 0.00 33 1006.5
20260506121805 74 0.0 0.0 0.00 0.00 0.00 35 1006.6
20260506121305 75 0.0 0.0 0.00 0.00 0.00 34 1006.7
20260506120804 74 0.0 0.0 0.00 0.00 0.00 37 1006.7
20260506120304 74 0.0 0.0 0.00 0.00 0.00 36 1006.8
20260506115804 74 0.0 0.0 0.00 0.00 0.00 38 1006.8
20260506115306 73 0.0 0.0 0.00 0.00 0.00 37 1006.9
20260506114803 74 0.0 0.0 0.00 0.00 0.00 38 1007.1
20260506114303 75 0.0 0.0 0.00 0.00 0.00 38 1007.1
20260506113802 74 0.0 0.0 0.00 0.00 0.00 38 1007.2
20260506113302 73 0.0 0.0 0.00 0.00 0.00 38 1007.3
20260506112802 72 0.0 0.0 0.00 0.00 0.00 41 1007.3
20260506112301 73 0.0 0.0 0.00 0.00 0.00 39 1007.5
20260506111801 74 0.0 0.0 0.00 0.00 0.00 39 1007.4
20260506111301 72 0.0 0.0 0.00 0.00 0.00 40 1007.6
20260506110800 70 0.0 0.0 0.00 0.00 0.00 43 1007.4
20260506110300 70 0.0 0.0 0.00 0.00 0.00 43 1007.4
20260506105759 70 0.0 0.0 0.00 0.00 0.00 45 1007.6
20260506105259 69 0.0 0.0 0.00 0.00 0.00 43 1007.7
20260506104759 70 0.0 0.0 0.00 0.00 0.00 42 1007.8
20260506104258 71 0.0 0.0 0.00 0.00 0.00 42 1007.8
20260506103758 71 0.0 0.0 0.00 0.00 0.00 41 1007.9
20260506103258 71 0.0 0.0 0.00 0.00 0.00 41 1007.9
20260506102757 71 0.0 0.0 0.00 0.00 0.00 42 1007.9
20260506102257 72 0.0 0.0 0.00 0.00 0.00 40 1007.9
20260506101757 72 0.0 0.0 0.00 0.00 0.00 42 1007.9
20260506101256 71 0.0 0.0 0.00 0.00 0.00 42 1008.0
20260506100756 71 0.0 0.0 0.00 0.00 0.00 42 1008.0
20260506100256 72 0.0 0.0 0.00 0.00 0.00 43 1008.0
20260506095755 71 0.0 0.0 0.00 0.00 0.00 44 1007.9
20260506095255 71 0.0 0.0 0.00 0.00 0.00 44 1007.9
20260506094755 71 0.0 0.0 0.00 0.00 0.00 43 1007.9
20260506094254 71 0.0 0.0 0.00 0.00 0.00 42 1008.0
20260506093755 71 0.0 0.0 0.00 0.00 0.00 45 1007.9
20260506093254 70 0.0 0.0 0.00 0.00 0.00 45 1008.0
20260506092753 71 0.0 0.0 0.00 0.00 0.00 45 1008.1
20260506092253 71 0.0 0.0 0.00 0.00 0.00 44 1008.0
20260506091753 71 0.0 0.0 0.00 0.00 0.00 40 1008.1
20260506091252 73 0.0 0.0 0.00 0.00 0.00 39 1008.0
20260506090752 74 0.0 0.0 0.00 0.00 0.00 37 1008.1
20260506090251 75 0.0 0.0 0.00 0.00 0.00 38 1008.1
20260506085751 78 0.0 0.0 0.00 0.00 0.00 33 1008.1
20260506085251 79 0.0 0.0 0.00 0.00 0.00 34 1008.1
20260506084750 76 0.0 0.0 0.00 0.00 0.00 36 1008.1
20260506084250 76 0.0 0.0 0.00 0.00 0.00 35 1008.1
20260506083750 77 0.0 0.0 0.00 0.00 0.00 36 1008.0
20260506083249 75 0.0 0.0 0.00 0.00 0.00 37 1008.0
20260506082749 76 0.0 0.0 0.00 0.00 0.00 36 1008.1
20260506082249 75 0.0 0.0 0.00 0.00 0.00 39 1008.2
20260506081748 73 0.0 0.0 0.00 0.00 0.00 42 1008.2
20260506081248 72 0.0 0.0 0.00 0.00 0.00 41 1008.2
20260506080747 73 0.0 0.0 0.00 0.00 0.00 41 1008.2
20260506080247 74 0.0 0.0 0.00 0.00 0.00 41 1008.2
20260506073245 74 0.0 0.0 0.00 0.00 0.00 38 1008.4
20260506072744 79 0.0 0.0 0.00 0.00 0.00 34 1008.3
20260506072244 81 0.0 0.0 0.00 0.00 0.00 32 1008.4